Regional Weather Roundup
Issued by NWS

Home | Current Version | Previous Version | Graphics & Text | Print | Product List | Glossary On
Versions: 1 2 3 4 5 6 7 8 9 10 11 12 13 14 15 16 17 18 19 20 21 22 23 24 25 26 27 28 29 30 31 32 33 34 35 36 37 38 39 40 41 42 43 44 45 46 47 48 49 50
000
ASUS43 KOAX 200202
RWRNE

WEATHER ROUNDUP FOR NEBRASKA
NATIONAL WEATHER SERVICE OMAHA NE
900 PM CDT SUN OCT 19 2014

NOTES: SATELLITE DATA IS BEING USED TO AUGMENT CLOUD COVER ABOVE
       12000 FEET.
       "FAIR" INDICATES FEW OR NO CLOUDS BELOW 12,000 FEET WITH NO
       SIGNIFICANT WEATHER AND/OR OBSTRUCTIONS TO VISIBILITY.

  * THESE STATIONS DO NOT REPORT WEATHER SUCH AS RAIN...SNOW OR FOG.

NEZ001>004-019>022-054>056-200300-
NEBRASKA PANHANDLE

CITY           SKY/WX    TMP DP  RH WIND       PRES   REMARKS
SCOTTSBLUFF    CLEAR     53  38  56 NE6       30.09R
ALLIANCE       CLEAR     51  37  58 NE8       30.09R
CHADRON        CLEAR     49  41  74 CALM      30.07R
KIMBALL        CLEAR     50  36  58 E6        30.12R
SIDNEY         CLEAR     45  37  73 CALM      30.11R
$$

NEZ057>060-069>072-079>082-200300-
SOUTHWEST NEBRASKA

CITY           SKY/WX    TMP DP  RH WIND       PRES   REMARKS
NORTH PLATTE   CLEAR     50  39  66 CALM      30.04R
IMPERIAL       CLEAR     58  39  49 CALM      30.06R
LEXINGTON      CLEAR     53  46  76 CALM      30.02S
MCCOOK         CLEAR     60  46  59 CALM      30.03R
OGALLALA       CLEAR     55  37  49 CALM      30.06R
$$

NEZ005>010-023>029-035>040-094-200300-
NORTH CENTRAL NEBRASKA

CITY           SKY/WX    TMP DP  RH WIND       PRES   REMARKS
VALENTINE      CLEAR     55  37  50 NW6       30.04R
AINSWORTH      CLEAR     52  38  59 CALM      30.03R
BROKEN BOW     CLEAR     50  40  68 CALM      30.01R
O`NEILL        CLEAR     57  43  58 NW3       29.99R
ORD            CLEAR     49  42  77 CALM      29.99R
THEDFORD       CLEAR     61  38  43 CALM      30.05R
$$

NEZ041-046>049-061>064-073>077-083>087-200300-
SOUTH CENTRAL NEBRASKA

CITY           SKY/WX    TMP DP  RH WIND       PRES   REMARKS
GRAND ISLAND   CLEAR     56  48  74 S6        29.99S
AURORA         CLEAR     55  45  70 SW6       29.99S
HASTINGS       CLEAR     53  43  68 W3        30.00R
HEBRON         CLEAR     60  47  64 S7        30.00R
HOLDREGE       CLEAR     52  46  79 CALM      30.02R
KEARNEY *      CLEAR     57  46  67 S3        30.02R
YORK           CLEAR     54  46  76 SW6       29.98F
$$

NEZ011>018-030>034-042>045-200300-
NORTHEAST NEBRASKA

CITY           SKY/WX    TMP DP  RH WIND       PRES   REMARKS
NORFOLK        CLEAR     53  44  71 W3        29.95R
ALBION         CLEAR     50  42  73 NW3       29.98S
BLAIR          CLEAR     62  47  58 SW6       29.94F
COLUMBUS *     CLEAR     50  43  76 NW3       29.97S
FREMONT        CLEAR     60  47  63 CALM      29.95F
TEKAMAH        CLEAR     56  46  69 SW7       29.93S
WAYNE          CLEAR     51  44  77 SW5       29.94S
$$

NEZ050>053-065>068-078-088>093-200300-
SOUTHEAST NEBRASKA

CITY           SKY/WX    TMP DP  RH WIND       PRES   REMARKS
LINCOLN        CLEAR     62  48  60 W3        29.98R
OMAHA EPPLEY   CLEAR     60  48  64 SE5       29.95R
BEATRICE       CLEAR     56  48  74 SW6       29.98S
FALLS CITY     CLEAR     57  48  72 SW6       29.97F
NEBRASKA CITY  CLEAR     58  44  58 SW9       29.96S
PLATTSMOUTH    CLEAR     59  46  61 SW7       29.96S
$$

NEZ044-045-051>053-067-200300-
OMAHA AREA

CITY           SKY/WX    TMP DP  RH WIND       PRES   REMARKS
OMAHA EPPLEY   CLEAR     60  48  64 SE5       29.95R
BLAIR          CLEAR     62  47  58 SW6       29.94F
FREMONT        CLEAR     60  47  63 CALM      29.95F
MILLARD        CLEAR     56  50  80 CALM      29.94S
OFFUTT AFB     CLEAR     50  50  99 CALM      29.94S
PLATTSMOUTH    CLEAR     59  46  61 SW7       29.96S
WAHOO          FAIR      58  46  64 SW7       29.95F
$$



USA.gov is the U.S. government's official web portal to all federal, state and local government web resources and services.